Temp
14 14 14 14 14 14 14 14 14 14 14 14 15 15 15 15 15 14 15 15 15 15 15 16 16 15 16 17 15 15 16 16 16 17 14 14 15 15 14 13 15 15 14 13 11
14 14 15 15 15 15 15 15 14 14 14 14 15 15 15 15 15 15 15 15 15 16 16 17 16 15 16 16 17 17 18 18 17 14 14 12 12 14 14 15 15 14 12 12 10
14 14 14 15 15 15 15 15 15 14 14 14 15 15 15 15 15 15 15 15 16 16 16 16 16 16 17 18 18 18 18 18 16 16 13 14 14 14 14 14 16 15 13 12 11
14 14 15 15 15 15 15 15 15 15 14 14 15 15 15 14 14 15 15 15 16 16 16 17 16 16 17 18 18 18 18 18 18 17 17 15 16 15 15 15 16 16 14 12 11
14 14 15 15 15 15 15 15 15 15 15 15 15 15 15 15 15 15 15 15 15 16 16 16 16 16 17 17 18 18 18 18 18 17 17 17 16 16 15 16 16 16 16 13 11
14 14 14 14 15 15 15 15 15 15 15 15 15 15 14 14 16 15 15 15 15 15 16 16 15 16 16 17 18 18 18 18 18 18 18 18 17 16 15 15 16 17 16 15 13
13 14 14 14 15 15 15 15 15 15 15 15 15 15 15 15 16 16 15 15 15 15 16 15 15 16 17 17 18 18 18 19 18 19 19 19 18 17 15 15 15 17 17 15 15
13 14 14 14 14 14 15 15 15 15 15 15 15 15 15 14 16 15 15 15 15 15 16 16 16 16 16 17 17 18 18 19 19 19 19 18 18 18 17 16 15 17 17 16 15
13 13 14 14 14 14 14 14 15 15 15 15 15 15 14 15 16 15 16 15 15 15 15 15 15 16 17 17 18 19 19 19 19 19 19 19 19 18 17 17 16 17 17 16 15
13 13 14 14 14 14 14 14 14 14 15 15 15 15 15 15 16 16 16 15 14 14 15 15 15 16 17 17 18 19 19 20 20 20 19 19 19 18 18 17 16 17 18 18 16
13 13 13 14 14 14 14 14 13 13 14 15 14 14 14 14 14 16 15 15 15 14 15 15 16 16 17 18 18 19 19 19 19 19 20 19 19 19 18 17 17 17 18 18 16
13 13 13 13 14 14 13 14 14 14 15 14 15 14 14 14 15 15 15 15 15 15 15 16 16 17 18 18 18 19 19 19 19 19 19 19 19 19 19 18 18 18 18 18 17
13 13 13 13 13 13 14 14 14 14 14 15 15 16 15 15 16 15 15 15 15 15 15 16 17 17 18 18 18 18 19 19 19 19 19 19 20 20 20 20 19 18 18 17 16
13 13 13 13 13 13 13 13 14 14 14 15 15 15 15 15 16 15 15 15 15 15 16 16 17 18 18 18 18 18 18 19 19 19 19 19 19 20 20 20 19 19 18 18 18
13 13 13 13 12 13 14 13 14 14 13 15 15 15 15 16 16 16 15 15 15 15 16 16 17 17 18 18 18 18 18 18 18 18 18 19 19 20 20 21 20 20 19 18 18
13 13 13 13 13 13 13 14 13 13 14 16 16 16 15 15 16 16 15 15 15 16 16 16 17 17 18 18 18 18 18 18 18 18 18 19 19 20 20 21 20 20 19 19 18
12 12 12 13 13 14 14 13 13 13 18 17 17 15 15 15 16 16 16 15 15 15 16 17 17 18 18 17 17 17 18 18 15 15 15 20 19 20 21 21 20 20 20 19 18
12 12 12 12 12 13 13 13 12 17 18 18 17 16 16 16 16 16 16 16 16 16 16 17 18 19 18 18 17 17 17 17 15 13 17 20 20 21 21 21 21 20 20 19 18
11 12 12 12 12 12 13 12 15 17 18 18 17 17 17 17 17 17 17 17 17 17 17 17 18 18 19 18 18 18 18 18 18 18 18 20 20 21 21 20 20 20 19 19 19
11 11 12 12 12 12 13 13 15 16 16 17 17 18 18 18 18 17 18 18 18 18 17 18 17 18 18 18 18 18 18 18 18 15 15 19 20 20 20 20 20 19 19 18 18
10 10 12 12 11 12 12 14 15 15 16 16 16 17 18 18 18 18 18 18 18 18 17 17 17 17 18 18 18 18 18 18 18 18 15 13 18 20 20 19 19 19 18 18 18
10 9 10 10 11 12 13 14 15 15 15 15 15 16 17 17 18 18 18 18 18 17 16 16 16 17 17 18 18 18 18 18 18 18 18 19 19 19 20 19 19 19 18 17 17
9 9 10 10 11 12 13 14 14 14 15 15 15 16 16 16 17 17 17 16 17 16 16 16 16 15 16 17 18 17 18 18 18 18 18 17 19 19 19 19 18 18 17 17 17
9 9 10 10 12 11 12 13 14 14 14 14 15 15 15 16 16 16 17 16 16 16 15 15 15 15 15 15 16 16 17 17 17 17 17 17 18 18 18 18 16 16 16 15 16
8 9 9 10 12 12 12 13 15 14 14 14 14 14 14 15 15 15 16 16 15 15 15 14 14 14 15 15 15 16 16 16 17 17 17 17 17 17 17 17 17 17 15 15 15
8 8 10 11 12 12 13 13 14 14 14 14 13 14 14 14 14 14 14 14 14 14 14 14 14 14 14 14 15 15 15 16 16 16 16 17 17 17 17 17 16 15 15 15 14
8 9 9 11 11 12 13 13 13 13 14 14 13 13 13 13 13 13 13 13 13 13 13 13 13 13 13 13 13 14 14 15 15 16 15 15 16 16 16 16 15 14 14 13 13
Height
3165 3166 3166 3166 3167 3167 3168 3169 3169 3170 3171 3172 3174 3176 3178 3180 3182 3184 3185 3186 3187 3188 3190 3191 3192 3193 3194 3194 3194 3192 3193 3192 3194 3194 3194 3194 3189 3190 3188 3191 3193 3189 3188 3189 3191
3165 3166 3166 3167 3167 3168 3168 3169 3170 3171 3172 3173 3174 3177 3179 3180 3183 3185 3187 3186 3188 3190 3192 3193 3190 3192 3193 3193 3196 3197 3197 3195 3195 3195 3194 3188 3196 3193 3195 3190 3189 3189 3190 3192 3194
3164 3165 3167 3167 3168 3169 3169 3170 3171 3172 3173 3173 3175 3177 3180 3182 3184 3186 3188 3188 3189 3190 3193 3192 3192 3192 3194 3196 3200 3198 3199 3196 3196 3190 3197 3198 3198 3195 3195 3192 3190 3189 3190 3192 3195
3164 3165 3166 3167 3168 3169 3170 3170 3171 3173 3174 3174 3176 3178 3180 3182 3186 3185 3188 3189 3191 3192 3193 3192 3190 3193 3194 3196 3198 3199 3198 3198 3196 3193 3191 3197 3196 3194 3194 3194 3193 3190 3191 3193 3196
3163 3164 3165 3166 3168 3169 3170 3171 3172 3173 3174 3176 3177 3179 3181 3183 3184 3185 3188 3190 3191 3192 3194 3193 3193 3194 3194 3195 3199 3197 3198 3198 3197 3195 3193 3195 3197 3195 3197 3195 3194 3194 3193 3194 3196
3162 3163 3164 3165 3167 3168 3170 3171 3172 3173 3175 3176 3178 3179 3181 3184 3183 3185 3187 3190 3192 3193 3195 3194 3197 3196 3195 3195 3198 3198 3197 3199 3197 3197 3197 3195 3192 3194 3197 3197 3196 3195 3196 3196 3196
3162 3163 3164 3164 3166 3168 3169 3171 3172 3174 3175 3177 3178 3180 3181 3183 3183 3185 3187 3189 3191 3193 3194 3194 3196 3198 3198 3195 3196 3197 3196 3196 3196 3195 3194 3194 3194 3193 3195 3195 3196 3196 3197 3197 3197
3161 3162 3163 3164 3166 3167 3169 3171 3172 3173 3175 3177 3178 3180 3181 3181 3183 3186 3187 3189 3191 3193 3194 3195 3197 3198 3198 3197 3195 3195 3196 3196 3196 3194 3193 3193 3194 3194 3194 3195 3195 3196 3197 3197 3198
3161 3161 3163 3164 3166 3167 3169 3171 3172 3173 3174 3176 3178 3179 3181 3182 3184 3185 3186 3189 3191 3193 3194 3196 3197 3198 3198 3195 3194 3193 3194 3195 3195 3194 3192 3192 3193 3193 3193 3194 3195 3196 3197 3196 3197
3160 3161 3162 3164 3166 3168 3170 3171 3172 3173 3174 3176 3178 3182 3181 3182 3181 3184 3186 3188 3191 3192 3194 3195 3197 3198 3196 3195 3194 3193 3194 3195 3195 3197 3193 3194 3193 3191 3191 3192 3192 3194 3195 3195 3195
3160 3161 3162 3164 3165 3168 3170 3171 3175 3175 3173 3177 3177 3180 3180 3181 3181 3182 3185 3188 3190 3192 3194 3195 3198 3197 3194 3194 3195 3194 3193 3193 3193 3194 3194 3192 3192 3192 3191 3191 3191 3193 3195 3196 3196
3160 3161 3162 3163 3165 3167 3169 3169 3171 3174 3174 3173 3176 3176 3180 3180 3181 3182 3184 3187 3188 3190 3193 3196 3194 3194 3194 3195 3194 3193 3193 3193 3193 3192 3192 3191 3189 3189 3189 3188 3189 3190 3192 3196 3195
3159 3161 3162 3163 3165 3167 3169 3171 3173 3173 3174 3175 3175 3176 3178 3180 3179 3180 3184 3185 3188 3190 3192 3193 3192 3194 3195 3195 3194 3193 3192 3192 3192 3190 3189 3188 3185 3186 3185 3186 3186 3186 3188 3190 3192
3158 3160 3161 3163 3168 3168 3169 3171 3172 3173 3174 3174 3173 3175 3177 3178 3179 3179 3182 3185 3187 3189 3191 3192 3192 3191 3191 3192 3194 3193 3192 3191 3189 3187 3187 3187 3183 3180 3178 3180 3182 3182 3183 3183 3189
3157 3159 3161 3163 3165 3166 3167 3170 3173 3175 3174 3175 3174 3175 3176 3179 3182 3181 3183 3185 3186 3189 3192 3190 3190 3190 3190 3191 3192 3191 3190 3189 3188 3187 3186 3183 3182 3174 3177 3177 3178 3180 3179 3179 3184
3155 3157 3160 3162 3164 3166 3168 3170 3173 3177 3172 3173 3173 3174 3176 3178 3180 3182 3185 3186 3187 3188 3188 3185 3186 3187 3187 3188 3188 3189 3189 3189 3189 3187 3184 3179 3182 3174 3172 3175 3176 3179 3181 3179 3179
3154 3156 3158 3160 3163 3166 3166 3170 3175 3173 3170 3172 3172 3173 3175 3178 3179 3182 3183 3185 3186 3187 3184 3184 3182 3181 3185 3187 3188 3189 3189 3188 3188 3185 3181 3177 3181 3173 3173 3172 3175 3178 3179 3177 3175
3152 3154 3157 3160 3163 3166 3167 3170 3171 3168 3169 3169 3171 3173 3176 3177 3179 3181 3182 3183 3184 3184 3184 3183 3179 3173 3181 3184 3186 3186 3188 3188 3188 3186 3178 3175 3171 3170 3171 3172 3173 3176 3178 3178 3178
3150 3153 3155 3159 3161 3164 3168 3167 3166 3167 3168 3170 3172 3172 3174 3176 3179 3179 3180 3180 3180 3181 3183 3181 3180 3179 3180 3181 3185 3185 3185 3186 3183 3180 3178 3171 3172 3172 3170 3170 3171 3175 3175 3175 3174
3148 3151 3154 3157 3160 3163 3165 3163 3165 3166 3167 3168 3171 3172 3172 3173 3177 3178 3178 3178 3178 3180 3181 3181 3179 3179 3181 3180 3183 3182 3183 3183 3182 3182 3183 3171 3171 3168 3168 3168 3171 3171 3172 3171 3171
3148 3150 3153 3155 3158 3160 3160 3162 3164 3166 3168 3170 3169 3170 3172 3172 3173 3173 3176 3175 3176 3176 3178 3179 3181 3181 3180 3180 3179 3179 3180 3181 3181 3181 3180 3181 3175 3170 3168 3170 3171 3169 3169 3169 3168
3147 3149 3152 3155 3158 3158 3159 3162 3164 3166 3166 3166 3168 3168 3169 3170 3171 3172 3174 3173 3173 3173 3176 3178 3179 3179 3177 3175 3178 3176 3175 3177 3178 3179 3176 3175 3172 3172 3169 3168 3168 3169 3168 3166 3166
3147 3149 3153 3154 3154 3156 3160 3162 3162 3165 3167 3168 3168 3169 3168 3169 3170 3170 3172 3171 3173 3173 3175 3177 3178 3178 3175 3174 3172 3172 3175 3174 3174 3174 3174 3175 3174 3170 3168 3167 3167 3166 3165 3164 3165
3147 3150 3152 3150 3153 3154 3156 3159 3162 3163 3164 3165 3166 3167 3168 3168 3169 3170 3171 3171 3171 3172 3174 3175 3177 3178 3178 3177 3177 3173 3173 3173 3173 3174 3174 3172 3174 3171 3169 3172 3169 3167 3166 3166 3167
3145 3146 3149 3149 3150 3153 3154 3156 3158 3160 3162 3163 3163 3165 3167 3168 3168 3170 3169 3169 3170 3169 3171 3172 3173 3173 3172 3172 3174 3173 3171 3172 3175 3173 3171 3170 3169 3172 3168 3166 3167 3166 3166 3166 3166
3142 3142 3143 3145 3150 3152 3153 3155 3155 3158 3159 3160 3163 3164 3167 3167 3165 3164 3165 3166 3166 3167 3168 3169 3170 3170 3170 3171 3170 3169 3168 3169 3170 3169 3167 3169 3164 3167 3165 3164 3166 3166 3165 3164 3164
3138 3143 3144 3144 3146 3150 3152 3154 3155 3156 3157 3159 3159 3160 3159 3159 3160 3161 3162 3163 3164 3165 3166 3166 3166 3167 3166 3168 3167 3167 3167 3167 3168 3167 3166 3166 3166 3164 3160 3158 3160 3165 3165 3162 3163
Wind_Speed
3 2 2 2 3 3 5 7 7 7 7 8 11 13 12 12 12 10 10 12 12 13 12 11 15 16 17 11 7 8 8 8 20 23 9 12 11 18 20 13 5 4 8 14 31
5 4 3 2 2 2 4 7 7 7 8 8 10 12 13 12 11 9 8 11 11 11 10 12 17 6 12 16 6 5 15 10 13 23 17 15 14 15 14 5 17 6 12 20 32
7 6 5 4 3 2 4 6 7 7 8 9 11 12 12 10 9 10 10 10 9 7 6 17 18 19 18 7 7 10 13 17 17 8 15 12 13 10 15 4 16 12 12 18 28
8 8 8 7 5 4 3 5 7 8 7 9 11 13 13 12 5 7 12 10 8 5 5 12 18 21 11 9 6 9 14 6 8 10 14 12 13 9 11 3 13 17 9 15 22
7 8 9 9 8 7 5 4 6 7 8 8 12 15 17 12 3 6 12 12 9 5 2 8 16 14 8 14 8 14 8 9 4 5 13 11 4 15 12 2 7 13 11 10 16
7 8 8 9 9 8 8 6 5 7 8 9 11 16 19 9 7 3 7 12 10 5 3 9 14 11 8 11 10 10 6 6 6 8 12 19 14 19 11 3 4 8 9 7 12
6 7 8 8 9 9 8 8 8 7 8 9 10 14 19 15 10 11 10 10 10 8 7 3 8 8 4 7 6 7 9 7 9 11 10 13 11 16 18 8 7 4 3 6 8
6 7 7 8 8 7 8 8 8 9 8 10 10 11 14 22 10 8 11 11 9 8 11 10 3 8 10 13 16 13 14 7 5 5 9 12 1 8 15 10 11 3 2 4 5
5 7 7 8 8 7 6 5 6 7 9 9 12 12 13 13 11 9 11 11 10 9 9 8 7 9 3 9 17 12 11 8 5 1 8 12 17 10 13 10 10 4 2 4 8
5 6 7 8 8 7 7 5 5 5 7 10 9 8 9 4 9 11 14 10 4 8 6 7 6 7 11 14 19 19 23 8 9 4 8 6 15 4 9 15 16 9 4 6 7
6 6 7 8 8 8 9 9 7 3 6 8 11 6 7 4 7 11 12 12 12 9 9 5 9 11 12 14 20 19 18 16 12 8 10 9 6 8 15 20 19 10 6 8 9
7 7 7 7 8 10 12 14 11 3 8 13 8 12 6 7 9 9 13 14 13 10 7 7 14 15 10 10 15 14 15 15 14 13 17 7 13 15 9 25 20 16 11 10 12
8 8 8 8 10 11 13 11 5 5 5 8 8 11 14 9 9 7 9 12 10 8 10 15 17 16 18 14 15 15 10 14 19 13 15 15 20 14 10 10 25 21 14 9 11
9 9 9 9 9 10 11 8 7 5 4 5 4 7 7 1 4 10 12 10 12 15 13 13 12 15 16 14 14 14 13 18 18 16 16 14 20 20 16 12 25 20 23 21 2
11 10 10 10 11 14 12 9 6 6 3 9 8 4 6 11 5 3 11 9 13 10 8 14 13 17 18 16 16 20 15 17 16 17 18 17 17 25 16 10 16 20 17 23 15
12 11 11 11 10 9 10 12 11 1 6 11 7 5 11 12 10 10 12 10 6 8 15 23 19 17 15 8 8 9 13 14 15 18 18 22 19 18 19 13 9 8 6 5 12
13 13 12 14 14 12 17 16 4 6 6 11 5 6 12 9 10 10 3 8 11 10 14 10 17 12 17 15 12 8 10 13 10 9 13 21 17 24 2 16 13 10 4 3 3
13 13 13 12 9 13 19 16 6 3 5 2 7 4 9 12 4 14 8 7 10 11 15 18 26 21 15 14 10 11 13 10 5 4 15 27 8 27 10 11 10 6 4 2 8
13 13 13 13 13 17 22 11 4 13 10 8 8 7 7 10 7 13 11 13 12 14 10 10 10 7 2 9 7 9 13 14 22 25 18 16 22 13 17 12 7 3 8 6 6
11 11 13 13 15 18 23 15 5 8 2 5 4 6 8 11 14 10 11 9 12 9 17 5 13 12 14 11 7 10 10 12 13 1 5 19 22 14 14 11 8 10 10 5 2
9 8 9 13 14 19 23 20 4 6 11 6 5 9 8 9 13 15 10 12 13 7 9 11 11 16 14 9 8 11 13 12 11 10 3 3 8 16 10 11 14 7 6 6 7
16 11 8 4 11 17 21 18 1 4 8 8 7 7 5 6 12 9 7 3 9 11 8 2 8 15 19 19 17 21 13 14 13 10 14 15 20 16 7 11 12 14 10 6 9
13 12 3 9 13 10 5 10 8 10 7 5 6 5 7 6 8 4 1 4 8 10 6 7 6 11 17 12 8 15 7 7 9 15 20 8 11 14 11 4 10 14 14 15 17
11 9 8 10 15 14 14 13 15 11 12 7 12 9 9 10 9 3 10 5 6 8 8 12 15 21 21 25 20 21 21 14 18 16 18 20 8 6 11 12 8 6 3 3 9
8 3 3 12 13 15 8 10 12 13 11 7 9 9 2 7 7 10 11 16 7 8 10 7 10 13 22 22 19 25 24 21 15 18 23 27 26 19 8 10 11 19 6 10 13
7 5 9 8 10 11 13 12 8 12 10 8 12 8 8 12 8 9 3 3 3 2 6 5 12 13 12 14 19 20 20 21 20 24 22 23 27 23 8 6 12 11 9 12 12
18 8 8 6 4 4 8 6 12 10 8 11 6 7 10 9 13 15 11 7 5 5 7 9 11 14 20 20 21 19 14 18 21 20 22 23 22 23 21 15 17 10 13 6 7
Wind_Direction
219 181 133 99 96 127 161 163 160 158 161 165 166 169 171 167 168 157 140 132 114 102 90 93 63 7 2 33 230 309 300 32 72 37 88 105 95 79 91 102 306 55 57 137 135
226 217 185 172 133 115 146 163 164 159 159 166 167 169 168 170 172 162 155 134 126 120 122 96 54 358 316 311 298 245 15 40 52 58 48 78 98 91 106 76 40 57 110 143 141
230 224 215 202 187 160 137 166 166 164 163 163 166 167 164 162 171 164 165 145 139 121 105 76 44 9 352 21 45 351 47 20 79 17 11 76 65 88 106 77 28 58 127 147 152
236 229 222 214 206 199 168 166 173 171 162 164 166 167 155 150 149 190 171 165 160 125 91 72 35 356 15 43 20 342 33 15 50 31 46 64 44 51 95 51 24 41 96 147 159
237 233 227 218 210 208 202 179 180 176 172 169 170 168 161 157 151 181 182 178 178 169 63 75 23 357 20 15 8 16 27 359 330 28 38 17 23 89 107 333 16 45 64 138 164
232 230 226 224 216 213 208 204 189 192 183 177 176 175 175 179 174 181 198 192 192 199 204 41 344 314 359 347 18 331 345 349 346 348 355 15 97 129 125 244 330 47 62 111 163
226 225 221 223 216 212 218 209 202 198 199 192 186 187 189 212 208 193 198 204 209 221 215 46 290 287 3 5 21 331 327 351 321 345 18 1 74 118 149 187 258 56 48 117 142
223 218 215 216 211 202 210 212 207 206 198 203 203 198 192 217 234 229 210 211 218 231 223 230 295 312 308 315 317 308 306 295 287 331 20 344 31 146 145 172 218 52 329 186 166
222 217 210 207 198 188 191 186 192 205 203 201 208 209 204 228 252 233 224 213 220 240 249 272 302 311 289 319 313 331 297 355 296 150 35 349 326 198 167 170 199 210 325 240 215
217 217 209 205 194 182 175 161 157 180 198 199 196 201 254 290 260 227 212 214 215 288 288 316 313 304 289 288 284 315 326 329 359 349 10 10 334 221 188 192 206 207 231 281 248
209 210 209 201 191 178 170 160 141 181 184 192 154 121 317 194 243 218 211 211 195 218 250 257 272 277 288 292 298 310 318 333 344 311 314 308 303 286 207 196 210 224 263 294 279
207 203 204 195 188 177 181 185 170 212 199 186 203 168 210 220 226 233 199 217 216 219 236 265 255 249 267 301 305 309 320 312 313 305 318 313 306 288 270 214 229 233 238 281 284
206 203 201 192 184 181 194 203 241 222 251 235 221 214 238 243 265 216 260 212 197 232 234 249 264 278 287 276 294 302 321 295 298 297 308 308 288 280 258 252 228 234 231 200 289
207 203 197 190 182 180 197 191 189 203 250 246 241 266 220 267 299 165 249 211 208 225 243 260 287 288 293 282 297 288 297 307 322 333 329 308 306 291 278 254 218 228 213 233 343
209 203 196 184 184 187 183 168 164 154 325 179 198 206 187 117 75 129 228 239 216 230 255 264 277 287 281 281 286 289 286 302 324 311 308 291 284 284 291 250 227 218 233 234 231
211 205 198 189 186 180 165 157 148 88 240 164 216 236 191 154 127 162 182 244 244 239 264 258 254 263 257 288 283 290 291 297 290 277 275 272 272 280 279 254 237 201 201 241 228
213 207 200 196 194 182 159 150 119 232 155 181 215 206 178 209 167 214 269 222 219 242 259 300 277 271 251 257 285 263 278 286 292 266 245 283 260 251 125 161 172 178 76 340 230
212 209 203 197 182 177 165 143 224 224 211 118 159 152 182 203 192 200 238 241 245 229 273 290 310 290 223 224 252 273 296 285 267 286 294 313 324 251 229 170 209 233 269 153 198
209 206 202 193 184 175 180 178 203 356 55 142 153 178 194 213 240 195 236 257 251 246 227 292 285 14 328 211 205 280 273 287 291 300 315 318 313 324 245 226 201 191 177 177 230
204 206 202 186 191 187 192 200 227 31 288 144 189 201 239 223 191 216 256 255 254 260 213 245 324 301 350 204 250 300 256 291 283 307 288 291 308 353 191 189 166 142 170 115 153
178 173 189 174 194 198 204 207 208 3 291 220 275 288 277 255 227 212 245 262 226 206 238 269 284 298 293 219 261 242 237 250 261 255 226 298 324 342 140 156 170 189 161 161 195
154 114 216 267 226 213 214 205 50 304 321 252 264 273 307 283 262 214 236 100 184 192 120 131 291 297 293 286 300 265 240 261 239 276 281 277 280 271 233 168 180 207 223 215 232
149 124 240 256 216 203 199 205 271 246 240 296 266 276 248 299 329 282 225 206 220 209 208 243 284 321 314 280 1 354 326 324 309 301 305 307 327 148 188 186 237 228 226 235 250
165 161 249 247 209 219 231 251 244 267 232 230 241 225 261 262 246 285 250 268 281 249 268 290 274 257 274 295 310 317 317 322 308 306 310 316 14 308 310 320 126 156 178 228 267
177 193 195 252 224 195 208 280 219 229 247 217 259 214 258 258 265 259 262 260 250 263 263 280 297 270 266 283 298 301 304 307 299 298 298 300 307 321 271 273 264 256 230 293 289
217 276 198 191 223 241 252 263 233 211 231 232 228 210 240 248 260 243 248 69 108 169 263 269 267 297 300 288 293 310 302 292 301 299 298 288 300 300 265 230 189 181 203 264 279
221 204 249 169 150 221 204 234 227 236 253 195 212 207 253 240 232 234 227 229 263 281 276 280 295 309 312 306 314 311 303 309 311 312 311 292 310 304 303 219 242 227 233 220 252